Regional Weather Roundup
Issued by NWS

Home | Current Version | Previous Version | Graphics & Text | Print | Product List | Glossary Off
Versions: 1 2 3 4 5 6 7 8 9 10 11 12 13 14 15 16 17 18 19 20 21 22 23 24 25 26 27 28 29 30 31 32 33 34 35 36 37 38 39 40 41 42 43 44 45 46 47 48 49 50

194
ASUS43 KDMX 261601
RWRIA

WEATHER ROUNDUP FOR IOWA
NATIONAL WEATHER SERVICE DES MOINES IA
1000 AM CST SUN FEB 26 2017

NOTE: "FAIR" INDICATES FEW OR NO CLOUDS BELOW 12,000 FEET WITH NO
SIGNIFICANT WEATHER AND/OR OBSTRUCTIONS TO VISIBILITY.

* - THESE STATIONS ARE NOT NWS STATIONS...THUS NOT UNDER NWS
QUALITY CONTROL.  THEY ALSO DO NOT REPORT WEATHER SUCH
AS PRECIPITATION OR FOG.

IAZ001>003-012>014-020>022-031>034-043>046-261700-
   NORTHWEST IOWA

CITY           SKY/WX    TMP DP  RH WIND       PRES   REMARKS
CARROLL *      SUNNY     30  23  74 SW14G21   29.88R WCI  20
CHEROKEE *     SUNNY     24  16  71 SW8       29.88R WCI  15
DENISON *      SUNNY     28  18  64 W12       29.88R WCI  18
LE MARS *      SUNNY     27  16  63 VRB5      29.90R WCI  21
SHELDON *      SUNNY     25  23  93 W6        29.84R WCI  18
SIOUX CITY     SUNNY     25  14  63 W8        29.91R WCI  16
SPENCER        SUNNY     26  18  71 W13       29.85R WCI  15
STORM LAKE *   SUNNY     23  16  74 W16       29.86R WCI  10
$$

IAZ055>058-069>071-079>083-090>094-261700-
   SOUTHWEST IOWA

CITY           SKY/WX    TMP DP  RH WIND       PRES   REMARKS
ATLANTIC *     SUNNY     36  25  64 SW15      29.92R WCI  26
AUDUBON *      SUNNY     34  23  64 SW13G21   29.90S WCI  25
CLARINDA *     SUNNY     41  27  56 SW17      29.98R
COUNCIL BLFS * SUNNY     36  19  51 W8G15     29.92R WCI  29
CRESTON *      SUNNY     39  23  52 SW18G24   29.94R WCI  30
HARLAN  *      SUNNY     32  23  69 SW12G18   29.94R WCI  23
LAMONI         SUNNY     42  25  50 SW25G32   29.95R
RED OAK *      SUNNY     39  25  56 SW17      29.95R WCI  30
SHENANDOAH *   SUNNY     41  27  56 SW15      29.97R
$$

IAZ047>049-059>061-072>074-084-261700-
   CENTRAL IOWA

CITY           SKY/WX    TMP DP  RH WIND       PRES   REMARKS
AMES           SUNNY     34  32  92 SW15      29.90R WCI  24
ANKENY *       SUNNY     39  25  56 SW9G17    29.93S WCI  33
BOONE *        SUNNY     32  21  64 W12G20    29.88R WCI  23
CHARITON *     SUNNY     39  21  48 SW18      29.95R WCI  30
DES MOINES     MOSUNNY   40  24  53 W21       29.92R WCI  30
GRINNELL*      SUNNY     35  26  68 SW13      29.93S WCI  27
KNOXVILLE *    SUNNY     39  21  48 SW18      29.93R WCI  30
MARSHALLTOWN   SUNNY     35  26  69 SW13      29.89S WCI  26
NEWTON *       SUNNY     36  25  64 SW16      29.92R WCI  26
PELLA *        SUNNY     40  23  52 W9G16     29.96R WCI  33
PERRY *          N/A     33  27  76 SW10      29.90S WCI  25
$$

IAZ004>006-015-016-023>025-035-036-261700-
   NORTH CENTRAL IOWA

CITY           SKY/WX    TMP DP  RH WIND       PRES   REMARKS
ALGONA *       SUNNY     23  18  80 SW13      29.85R WCI  11
CLARION *      SUNNY     27  23  86 SW9       29.87R WCI  17
ESTHERVILLE    SUNNY     22  18  85 W13       29.82R WCI  10
FORT DODGE *   SUNNY     28  18  64 SW8       29.88R WCI  20
MASON CITY     SUNNY     27  19  72 W15       29.85R WCI  15
FOREST CITY *    N/A     27  19  74 SW13      29.84R HAZE    WCI  16
WEBSTER CITY * SUNNY     30  21  69 SW7       29.86R WCI  23
IOWA FALLS *     N/A     32  24  73 SW12      29.88S WCI  23
$$

IAZ007>011-017>019-026>030-037>042-050>054-066-261700-
   NORTHEAST IOWA

CITY           SKY/WX    TMP DP  RH WIND       PRES   REMARKS
CEDAR RAPIDS   SUNNY     36  24  62 SW20      29.91R WCI  25
CHARLES CITY * SUNNY     28  23  80 W12       29.86R WCI  18
CLINTON *      SUNNY     38  23  55 SW28      29.93R WCI  26
DECORAH *      SUNNY     30  21  69 W10G17    29.83R WCI  21
DUBUQUE        SUNNY     33  23  66 SW24      29.87S WCI  20
MONTICELLO *   SUNNY     37  23  56 SW17      29.90S WCI  28
OELWEIN *      SUNNY     32  27  80 SW15      29.87S WCI  22
WATERLOO       SUNNY     32  24  72 SW14      29.88R WCI  22
$$

IAZ064-065-067-068-078-261700-
   EAST CENTRAL IOWA

CITY           SKY/WX    TMP DP  RH WIND       PRES   REMARKS
DAVENPORT      SUNNY     37  21  52 SW21G26   29.95S WCI  26
IOWA CITY      MOSUNNY   40  23  50 SW15G25   29.96R WCI  32
MUSCATINE *    MOSUNNY   41  21  45 SW16      29.97S
QUAD CITIES    MOSUNNY   41  21  44 SW18G25   29.96S
$$

IAZ062-063-075>077-085>089-095>099-261700-
   SOUTHEAST IOWA

CITY           SKY/WX    TMP DP  RH WIND       PRES   REMARKS
BURLINGTON     SUNNY     40  20  44 SW17      29.99S WCI  31
FAIRFIELD *    MOSUNNY   41  19  42 W17       29.97R
KEOKUK *       PTSUNNY   39  18  41 SW18      30.00S WCI  30
CENTERVILLE *    N/A     41  23  48 SW21G26   29.98S
OTTUMWA        MOSUNNY   41  20  43 SW18      29.96R
WASHINGTON *   MOSUNNY   39  23  52 SW17G25   29.97R WCI  30
$$

ABBREVIATIONS USED IN REMARKS
   TC - TEMPERATURES IN CELSIUS
  WCI - WIND CHILL INDEX
   HX - HEAT INDEX
  VSB - VISIBILITY
$$





USA.gov is the U.S. government's official web portal to all federal, state and local government web resources and services.